Regional Weather Roundup
Issued by NWS

Home | Current Version | Previous Version | Graphics & Text | Print | Product List | Glossary On
Versions: 1 2 3 4 5 6 7 8 9 10 11 12 13 14 15 16 17 18 19 20 21 22 23 24 25 26 27 28 29 30 31 32 33 34 35 36 37 38 39 40 41 42 43 44 45 46 47 48 49 50
574
ASUS43 KMPX 250401
RWRMN
WEATHER ROUNDUP FOR MINNESOTA
NATIONAL WEATHER SERVICE TWIN CITIES/CHANHASSEN MN
1100 PM CDT THU MAY 24 2018


NOTE: "FAIR" INDICATES FEW OR NO CLOUDS BELOW 12,000 FEET WITH NO
SIGNIFICANT WEATHER AND/OR OBSTRUCTIONS TO VISIBILITY. N/A MEANS
CURRENT SKY AND/OR WEATHER CONDITIONS ARE NOT AVAILABLE.

MNZ060>063-068>070-250500-
   Twin Cities Metro

CITY           SKY/WX    TMP DP  RH WIND       PRES   REMARKS
TWIN CITIES    CLOUDY    70  65  84 SE8       29.89S
ST PAUL        CLOUDY    69  63  81 S10       29.89F
CRYSTAL        MOCLDY    70  63  78 S6        29.87S
BLAINE         LGT RAIN  72  64  78 SE8       29.87F
LAKEVILLE      FAIR      66  66 100 E6        29.90F
EDEN PRAIRIE   MOCLDY    69  63  81 E8        29.88S
SOUTH ST PAUL  MOCLDY    66  66 100 S6        29.91R
LAKE ELMO      MOCLDY    68  64  88 SE9       29.91F
$$
MNZ001>005-007-008-013>017-022>024-027-028-250500-
   Northwest Minnesota

CITY           SKY/WX    TMP DP  RH WIND       PRES   REMARKS
BEMIDJI        FAIR      70  59  69 S7        29.74F
HALLOCK        FAIR      73  55  53 W3        29.62F
ROSEAU         FAIR      73  64  73 SW13G26   29.66R
WARROAD        FAIR      75  66  73 S9G17     29.66F
THIEF RVR FALL FAIR      71  63  75 S10       29.69R
CROOKSTON      FAIR      72  64  78 S7        29.67F
FOSSTON        FAIR      73  57  56 S9        29.72R
DETROIT LAKES  FAIR      77  61  57 S12       29.77S
MOORHEAD       FAIR      75  63  64 S9        29.73R
PARK RAPIDS    FAIR      75  62  64 S13       29.77S
MAHNOMEN       FAIR      76  61  59 SW22G29   29.72S
$$
MNZ006-009>011-018-025>026-250500-
   North Central Minnesota

CITY           SKY/WX    TMP DP  RH WIND       PRES   REMARKS
BAUDETTE       FAIR      72  67  84 S8        29.68F
FLAG ISLAND    FAIR      72  63  73 SE10      29.64F
INTL FALLS     FAIR      65  63  93 SE6       29.73F
WASKISH          N/A     70  66  88 CALM      29.70F
BIG FORK       FAIR      66  66 100 S3        29.75F
LONGVILLE      FAIR      79  61  53 S8G18     29.78F
GRAND RAPIDS   FAIR      73  68  84 S9        29.80F
CRANE LAKE     FAIR      61  61 100 CALM      29.79S FOG
ORR            FAIR      64  61  88 SE3       29.75F FOG
COOK           FOG       64  64 100 CALM      29.79F VSB 1
WALKER         FAIR      76  61  59 S12G17    29.75F
$$
MNZ012-019>021-037-250500-
   Northeast Minnesota

CITY           SKY/WX    TMP DP  RH WIND       PRES   REMARKS
DULUTH         FAIR      62  60  93 SE5       29.83S
ELY            FAIR      68  64  88 S5        29.81F
HIBBING        FAIR      65  64  97 SE3       29.80S
EVELETH        FAIR      68  64  88 CALM      29.83S
DULUTH HARBOR  CLOUDY    50  48  93 NE7       29.84F FOG
TWO HARBORS    FAIR      63  57  82 CALM      29.82S
SILVER BAY     FAIR      61  61 100 CALM      29.82F
G MARAIS ARPRT FOG       61  57  88 SE3       29.89F VSB 1
$$
MNZ029>031-032-039>041-046>048-054>057-064-250500-
   West Central Minnesota

CITY           SKY/WX    TMP DP  RH WIND       PRES   REMARKS
FERGUS FALLS   FAIR      73  61  64 S14       29.73S
WHEATON        PTCLDY    75  63  64 S9        29.80R
MORRIS         CLOUDY    72  64  78 SE6       29.81R
ALEXANDRIA     FAIR      73  61  65 S9        29.83S
ELBOW LAKE     FAIR      70  63  78 S9        29.81R
WADENA         FAIR      70  61  73 S10       29.78F
GLENWOOD       FAIR      64  63  94 SE7         N/A
APPLETON       MOCLDY    79  59  50 S7        29.82R
BENSON         CLOUDY    70  64  83 S7        29.84R
ORTONVILLE     PTCLDY    73  61  64 S6        29.82R
MADISON        MOCLDY    77  63  61 S7        29.83R
WILLMAR        FAIR      70  64  83 SE3       29.87S
$$
MNZ033>034-036-042>043-049>051-058-059-250500-
   Central Minnesota

CITY           SKY/WX    TMP DP  RH WIND       PRES   REMARKS
ST CLOUD       FAIR      68  58  70 S7        29.85R
SAUK CENTRE    FAIR      65  61  89 SE3       29.83F
PAYNESVILLE    FAIR      69  61  76 SE6       29.86S
PINE RIVER     FAIR      72  59  64 S6        29.82F
BRAINERD       FAIR      73  60  63 S9        29.78F
STAPLES        FAIR      70  55  60 SW5       29.80S
LONG PRAIRIE   FAIR      64  61  88 SE8       29.82F
LITTLE FALLS   FAIR      66  61  82 SE7       29.83R
LITCHFIELD     FAIR      72  64  78 SE5       29.88R
BUFFALO        FAIR      69  63  80 SE5       29.87F
MAPLE LAKE     FAIR      70  64  79 S3        29.87F
HUTCHINSON     FAIR      69  66  90 E7        29.88S
$$
MNZ037-044-045-052-053-250500-
   East Central Minnesota

CITY           SKY/WX    TMP DP  RH WIND       PRES   REMARKS
PRINCETON      FAIR      72  61  68 SE10      29.86S
MORA           FAIR      70  59  68 S10G17    29.87R
CAMBRIDGE      FAIR      72  59  64 S13       29.86S
RUSH CITY      FAIR      68  60  74 S8        29.86S
MOOSE LAKE     FAIR      63  61  94 CALM      29.81F FOG
HINCKLEY       FAIR      72  61  68 S8        29.85R
CLOQUET        FAIR      61  57  88 CALM      29.83F FOG
MCGREGOR       FAIR      72  63  73 S8        29.82S
$$
MNZ071>073-080-081-089-090-097-098-250500-
   Southwest Minnesota

CITY           SKY/WX    TMP DP  RH WIND       PRES   REMARKS
MONTEVIDEO     CLOUDY    75  63  64 W9        29.84R
CANBY          PTCLDY    77  62  60 SW5       29.85S
MARSHALL       MOCLDY    73  61  65 W8        29.86R
REDWOOD FALLS  CLOUDY    74  62  66 S5        29.84R
OLIVIA         CLOUDY    72  63  73 S3        29.86R
PIPESTONE      CLEAR     70  55  60 W8        29.89R
WINDOM         CLOUDY    75  50  41 S12G20    29.87R
WORTHINGTON    PTCLDY    73  58  59 S10       29.90R
JACKSON        MOCLDY    72  61  68 S9        29.90S
TRACY          MOCLDY    74  60  61 SW3       29.87R
SLAYTON        CLOUDY    73  57  57 S12       29.87R
$$
MNZ065>067-074>077-082>085-091>093-250500-
   South Central Minnesota

CITY           SKY/WX    TMP DP  RH WIND       PRES   REMARKS
MANKATO        FAIR      76  59  55 S10       29.89S
NEW ULM        CLOUDY    75  61  60 S15       29.86F
ST JAMES       CLOUDY    75  61  60 SE15      29.89R
FAIRMONT       CLOUDY    72  60  66 S13       29.91R
GLENCOE        FAIR      70  70 100 E9        29.86F
FARIBAULT      FAIR      66  66 100 CALM      29.92R
OWATONNA       FAIR      73  61  64 S16G22    29.93F
WASECA         LGT RAIN  72  63  73 S18       29.92F
ALBERT LEA     CLOUDY    73  54  49 SW10G22   29.97R
$$
MNZ078>079-086>088-094>096-250500-
   Southeast Minnesota

CITY           SKY/WX    TMP DP  RH WIND       PRES   REMARKS
ROCHESTER      FAIR      76  61  59 S14       29.95R
RED WING       MOCLDY    68  63  83 W5        29.94R
STANTON        FAIR      71  64  79 SE10      29.89F
DODGE CENTER   CLOUDY    70  61  73 SW24G30   29.96R
WINONA         MOCLDY    77  63  61 N8        29.94R
AUSTIN         MOCLDY    75  61  60 W10G16    29.97R THUNDER
PRESTON        FAIR      75  58  56 S12G17    29.97S
$$
ABBREVIATIONS USED IN REMARKS
   TC - TEMPERATURES IN CELSIUS
  WCI - WIND CHILL INDEX
   HX - HEAT INDEX
  VSB - VISIBILITY
$$




USA.gov is the U.S. government's official web portal to all federal, state and local government web resources and services.